Weather History for KFAR - July, 2013

Change the Weather History Date:

Friday, July 19, 2013

  Actual Average Record
Temperature  
Mean Temperature 76 °F 71 °F  
Max Temperature 87 °F 83 °F 104 °F (1932)
Min Temperature 65 °F 60 °F 45 °F (1882)
Degree Days  
Heating Degree Days 0 0  
Month to date heating degree days 0 12  
Since 1 June heating degree days 62 85  
Since 1 July heating degree days 0 12  
Cooling Degree Days 11 7  
Month to date cooling degree days 214 123  
Year to date cooling degree days 389 261  
Since 1 June cooling degree days 360 230  
Growing Degree Days 26 (Base 50)    
Moisture  
Dew Point 60 °F    
Average Humidity 62    
Maximum Humidity 87    
Minimum Humidity 37    
Precipitation  
Precipitation 0.35 in 0.08 in 1.82 in (1919)
Month to date precipitation 0.81 1.89  
Year to date precipitation 21.44 12.60  
Snow  
Snow 0.00 in 0.00 in 0.00 in ()
Month to date snowfall 0.0 0.0  
Since 1 June snowfall 0.0 0.0  
Since 1 July snowfall 0.0 0.0  
Snow Depth 0.00 in    
Sea Level Pressure  
Sea Level Pressure 29.84 in    
Wind  
Wind Speed 11 mph (NW)    
Max Wind Speed 25 mph    
Max Gust Speed 30 mph    
Visibility 9 miles    
Events Rain    
T = Trace of Precipitation, MM = Missing Value Source: NWS Daily Summary

Daily Weather History Graph

Daily Weather History Graph

Search for Another Location

Airport or City:

Trip Planner

Search our weather history database for the weather conditions in past years. The results will help you decide how hot, cold, wet, or windy it might be!

Date:

Astronomy

Jul. 19, 2013 Rise Set
Actual Time 5:52 AM CDT 9:14 PM CDT
Civil Twilight 5:14 AM CDT 9:51 PM CDT
Nautical Twilight 4:25 AM CDT 10:40 PM CDT
Astronomical Twilight 3:22 AM CDT 11:43 PM CDT
Moon 6:17 PM CDT (7/19) 2:35 AM CDT (7/19)
Length of Visible Light 16h 36m
Length of Day
15h 22m
Waxing Gibbous, 87% of the Moon is Illuminated
Jul 19
Waxing Gibbous
Jul 22
Full
Jul 29
Last Quarter
Aug 6
New
Aug 14
First Quarter

Hourly Weather History & Observations

Time (CDT) Temp. Heat Index Dew Point Humidity Pressure Visibility Wind Dir Wind Speed Gust Speed Precip Events Conditions
12:53 AM 78.1 °F - 64.0 °F 62% 29.72 in 10.0 mi West 20.7 mph 25.3 mph N/A   Clear
1:53 AM 75.9 °F - 59.0 °F 56% 29.75 in 10.0 mi WNW 16.1 mph - N/A   Clear
2:53 AM 73.0 °F - 60.1 °F 64% 29.75 in 10.0 mi WNW 13.8 mph 18.4 mph N/A   Clear
3:53 AM 70.0 °F - 57.9 °F 65% 29.78 in 10.0 mi NW 18.4 mph - N/A   Clear
4:53 AM 68.0 °F - 59.0 °F 73% 29.81 in 10.0 mi NW 15.0 mph - N/A   Clear
5:18 AM 66.2 °F - 60.8 °F 83% 29.83 in 10.0 mi NW 15.0 mph - N/A   Mostly Cloudy
5:53 AM 66.9 °F - 60.1 °F 79% 29.83 in 10.0 mi NW 10.4 mph - N/A   Overcast
6:24 AM 66.2 °F - 60.8 °F 83% 29.85 in 10.0 mi NNW 10.4 mph - N/A   Scattered Clouds
6:53 AM 66.0 °F - 60.1 °F 81% 29.84 in 10.0 mi NW 9.2 mph - N/A   Clear
7:53 AM 68.0 °F - 57.9 °F 70% 29.86 in 10.0 mi NW 10.4 mph - N/A   Clear
8:53 AM 71.1 °F - 59.0 °F 66% 29.87 in 10.0 mi NNW 11.5 mph - N/A   Clear
9:53 AM 75.0 °F - 60.1 °F 60% 29.88 in 10.0 mi NW 15.0 mph - N/A   Clear
10:53 AM 78.1 °F - 59.0 °F 52% 29.88 in 10.0 mi WNW 13.8 mph - N/A   Clear
11:53 AM 81.0 °F 81.0 °F 57.0 °F 44% 29.88 in 10.0 mi NW 13.8 mph 21.9 mph N/A   Clear
12:53 PM 82.0 °F 82.0 °F 57.9 °F 44% 29.88 in 10.0 mi WNW 15.0 mph 21.9 mph N/A   Partly Cloudy
1:53 PM 84.0 °F 83.3 °F 57.0 °F 40% 29.87 in 10.0 mi NW 13.8 mph 21.9 mph N/A   Partly Cloudy
2:53 PM 84.9 °F 83.7 °F 55.9 °F 37% 29.87 in 10.0 mi WNW 12.7 mph 23.0 mph N/A   Scattered Clouds
3:53 PM 86.0 °F 84.9 °F 57.0 °F 37% 29.85 in 10.0 mi West 13.8 mph - N/A   Partly Cloudy
4:53 PM 82.9 °F 82.6 °F 57.9 °F 42% 29.84 in 10.0 mi NNW 11.5 mph - 0.00 in   Mostly Cloudy
5:53 PM 75.0 °F - 62.1 °F 64% 29.84 in 10.0 mi North 15.0 mph - 0.00 in Rain Light Rain
6:01 PM 71.6 °F - 62.6 °F 73% 29.85 in 1.8 mi NNW 11.5 mph - 0.00 in Rain Heavy Rain
6:10 PM 69.8 °F - 62.6 °F 78% 29.86 in 3.0 mi North 21.9 mph 28.8 mph 0.07 in Rain Rain
6:20 PM 66.2 °F - 60.8 °F 83% 29.85 in 2.0 mi NNE 11.5 mph - 0.16 in Rain Heavy Rain
6:30 PM 66.2 °F - 60.8 °F 83% 29.87 in 10.0 mi North 11.5 mph - 0.16 in Rain Light Rain
6:42 PM 66.2 °F - 60.8 °F 83% 29.88 in 2.0 mi North 11.5 mph - 0.26 in Rain Heavy Rain
6:53 PM 66.9 °F - 61.0 °F 81% 29.89 in 4.0 mi NW 8.1 mph - 0.29 in Rain Light Rain
7:53 PM 66.9 °F - 60.1 °F 79% 29.86 in 10.0 mi WNW 3.5 mph - 0.06 in Rain Light Rain
8:53 PM 66.9 °F - 62.1 °F 84% 29.86 in 10.0 mi SW 3.5 mph - 0.00 in   Clear
9:53 PM 66.9 °F - 62.1 °F 84% 29.87 in 10.0 mi WNW 5.8 mph - N/A   Overcast
10:53 PM 66.9 °F - 62.1 °F 84% 29.88 in 10.0 mi WNW 6.9 mph - 0.00 in   Mostly Cloudy
11:53 PM 66.0 °F - 60.1 °F 81% 29.88 in 10.0 mi NW 4.6 mph - N/A   Clear